Regional Weather Roundup
Issued by NWS

Home | Current Version | Previous Version | Graphics & Text | Print | Product List | Glossary On
Versions: 1 2 3 4 5 6 7 8 9 10 11 12 13 14 15 16 17 18 19 20 21 22 23 24 25 26 27 28 29 30 31 32 33 34 35 36 37 38 39 40 41 42 43 44 45 46 47 48 49 50
000
ASUS43 KMPX 262001
RWRMN
WEATHER ROUNDUP FOR MINNESOTA
NATIONAL WEATHER SERVICE TWIN CITIES/CHANHASSEN MN
300 PM CDT SAT MAY 26 2018


NOTE: "FAIR" INDICATES FEW OR NO CLOUDS BELOW 12,000 FEET WITH NO
SIGNIFICANT WEATHER AND/OR OBSTRUCTIONS TO VISIBILITY. N/A MEANS
CURRENT SKY AND/OR WEATHER CONDITIONS ARE NOT AVAILABLE.

MNZ060>063-068>070-262100-
   Twin Cities Metro

CITY           SKY/WX    TMP DP  RH WIND       PRES   REMARKS
TWIN CITIES    FAIR      93  55  27 W13       29.70S HX  91
ST PAUL        FAIR      92  57  30 SW12G18   29.69F HX  90
CRYSTAL        FAIR      92  54  27 W8G17     29.69S HX  90
BLAINE         MOSUNNY   93  50  22 SW9       29.70S HX  90
LAKEVILLE      FAIR      91  59  33 NW8G21    29.71F HX  90
EDEN PRAIRIE   FAIR      93  59  31 W7        29.70F HX  92
SOUTH ST PAUL  FAIR      92  53  27 W8        29.70S
LAKE ELMO      FAIR      90  59  35 W8G16     29.71F
$$
MNZ001>005-007-008-013>017-022>024-027-028-262100-
   Northwest Minnesota

CITY           SKY/WX    TMP DP  RH WIND       PRES   REMARKS
BEMIDJI        FAIR      83  56  39 W12G24    29.70S
HALLOCK        FAIR      82  57  42 NW9G18    29.66S
ROSEAU         FAIR      81  63  54 NW10G17   29.67S
WARROAD        FAIR      77  63  61 NW7       29.68R
THIEF RVR FALL FAIR      83  56  39 NW14      29.69F
CROOKSTON      FAIR      88  52  29 W22G28    29.67F
FOSSTON        FAIR      84  50  30 W13G23    29.71S
DETROIT LAKES  FAIR      90  45  20 W13G23    29.73S
MOORHEAD       FAIR      93  43  17 NW21G29   29.68F
PARK RAPIDS    FAIR      90  49  24 W20G31    29.70S
MAHNOMEN       FAIR      88  49  26 W12G28    29.70S
$$
MNZ006-009>011-018-025>026-262100-
   North Central Minnesota

CITY           SKY/WX    TMP DP  RH WIND       PRES   REMARKS
BAUDETTE         N/A    N/A N/A N/A MISG      29.67R
FLAG ISLAND    PTSUNNY   70  63  78 CALM      29.66R
INTL FALLS     FAIR      78  58  49 W15G21    29.66R
WASKISH        FAIR      79  63  57 CALM      29.68S
BIG FORK       FAIR      84  55  37 W12G28    29.67S
LONGVILLE      FAIR      86  52  30 W12G17    29.69S
GRAND RAPIDS   FAIR      85  54  34 NW16G22   29.70R
CRANE LAKE     PTSUNNY   73  61  64 NW3       29.68R
ORR            FAIR      79  57  47 NW8       29.65R
COOK           PTSUNNY   81  57  44 NW6       29.67R
WALKER         FAIR      85  52  31 W18G25    29.69S
$$
MNZ012-019>021-037-262100-
   Northeast Minnesota

CITY           SKY/WX    TMP DP  RH WIND       PRES   REMARKS
DULUTH         FAIR      92  48  22 W22G33    29.66S
ELY            FAIR      79  55  44 NE5       29.67R
HIBBING        FAIR      85  50  29 W15G28    29.66S
EVELETH        FAIR      84  52  32 W16G24    29.67S
DULUTH HARBOR  FAIR      52  48  87 NE5       29.65S
TWO HARBORS    FAIR      90  55  31 W15G26    29.61S
SILVER BAY     FAIR      75  59  57 SE7       29.62S
GRAND MARAIS     N/A     48  45  89 NE8       29.68R
G MARAIS ARPRT PTSUNNY   64  61  88 S5        29.72R
$$
MNZ029>031-032-039>041-046>048-054>057-064-262100-
   West Central Minnesota

CITY           SKY/WX    TMP DP  RH WIND       PRES   REMARKS
FERGUS FALLS   FAIR      90  48  24 W15G21    29.65S
WHEATON        SUNNY     91  45  19 W14       29.72F
MORRIS         SUNNY     97  46  17 NW14      29.71F HX  93
ALEXANDRIA     FAIR      94  49  21 NW14G20   29.74F HX  90
ELBOW LAKE     FAIR      93  46  19 NW15G21   29.72S
WADENA         FAIR      88  54  31 W16       29.71F
GLENWOOD       FAIR      91  50  24 NW13G20   29.74S
APPLETON       SUNNY     95  41  15 W12G20    29.71F HX  91
BENSON         SUNNY     95  48  20 NW16      29.72S HX  91
ORTONVILLE     SUNNY     91  48  22 W10       29.73F
MADISON        SUNNY     93  48  21 NW14      29.73S HX  90
WILLMAR          N/A     93  50  22 NW8G17    29.74S HX  90
$$
MNZ033>034-036-042>043-049>051-058-059-262100-
   Central Minnesota

CITY           SKY/WX    TMP DP  RH WIND       PRES   REMARKS
ST CLOUD       FAIR      94  47  20 N10G20    29.70S HX  90
SAUK CENTRE    FAIR      91  49  23 W14G20    29.72F
PAYNESVILLE    FAIR      90  54  29 W13G21    29.73F
AITKIN         FAIR      88  46  23 W13G22    29.67F
PINE RIVER     FAIR      84  54  34 W9G20     29.73S
BRAINERD       FAIR      91  45  20 W17G28    29.70S
STAPLES        FAIR      90  45  20 W14G25    29.71S
LONG PRAIRIE   FAIR      90  46  22 W9G18     29.73F
LITTLE FALLS   FAIR      90  50  25 W12G20    29.72R
LITCHFIELD     FAIR      91  52  25 NW7       29.71F
BUFFALO        FAIR      92  51  24 SW7       29.71S
MAPLE LAKE     FAIR      94  53  25 W12       29.71S HX  91
HUTCHINSON     FAIR      92  54  27 W3        29.72F HX  90
$$
MNZ037-044-045-052-053-262100-
   East Central Minnesota

CITY           SKY/WX    TMP DP  RH WIND       PRES   REMARKS
PRINCETON      FAIR      97  46  17 W12G23    29.69S HX  93
MORA           FAIR      90  52  27 W8        29.70S
CAMBRIDGE      FAIR      97  66  36 W10G16    29.68F HX 100
RUSH CITY      FAIR      92  50  23 W7G16     29.69S
MOOSE LAKE     FAIR      90  52  27 W9G21     29.66S
HINCKLEY       FAIR      90  54  29 W8G16     29.68F
CLOQUET        FAIR      90  39  17 W18G26    29.67S
MCGREGOR       FAIR      88  45  22 W9G24     29.68S
$$
MNZ071>073-080-081-089-090-097-098-262100-
   Southwest Minnesota

CITY           SKY/WX    TMP DP  RH WIND       PRES   REMARKS
MONTEVIDEO     SUNNY     97  46  17 N10G16    29.72F HX  93
CANBY          SUNNY     91  51  25 SW7       29.75S
MARSHALL       SUNNY     91  57  31 NW9G23    29.74F
REDWOOD FALLS  SUNNY     92  55  28 N7        29.72F HX  90
OLIVIA         MOSUNNY   90  54  29 W9        29.71F
PIPESTONE      SUNNY     91  52  25 NW13G20   29.78F
WINDOM         SUNNY     91  55  29 NW9       29.74F
WORTHINGTON    SUNNY     90  54  29 NW15G21   29.77F
JACKSON        SUNNY     90  50  25 W10       29.76F
TRACY          SUNNY     94  50  22 NW12G18   29.75S HX  90
$$
MNZ065>067-074>077-082>085-091>093-262100-
   South Central Minnesota

CITY           SKY/WX    TMP DP  RH WIND       PRES   REMARKS
MANKATO        FAIR      93  53  25 NW6G16    29.72F HX  90
NEW ULM        SUNNY     91  46  21 NW5       29.71F
ST JAMES       SUNNY     93  52  24 SW8       29.73F HX  90
FAIRMONT       SUNNY     92  53  26 W10       29.74F
GLENCOE        FAIR      92  53  26 SW6       29.71F
FARIBAULT      FAIR      91  57  31 CALM      29.73F HX  90
OWATONNA       FAIR      93  54  26 W7        29.73F HX  91
WASECA         FAIR      91  46  21 NW9G17    29.74F
ALBERT LEA     FAIR      90  45  20 CALM      29.74F
$$
MNZ078>079-086>088-094>096-262100-
   Southeast Minnesota

CITY           SKY/WX    TMP DP  RH WIND       PRES   REMARKS
ROCHESTER      FAIR      90  59  35 CALM      29.75F
RED WING       FAIR      93  45  18 W14       29.69S
STANTON        FAIR      91  54  27 SW9       29.70F
DODGE CENTER   FAIR      90  52  27 CALM      29.74F
WINONA         FAIR      90  63  40 SW7       29.72S HX  90
AUSTIN         FAIR      90  52  27 W7        29.75S
PRESTON        RAIN      83  63  50 NW6       29.77S
$$
ABBREVIATIONS USED IN REMARKS
   TC - TEMPERATURES IN CELSIUS
  WCI - WIND CHILL INDEX
   HX - HEAT INDEX
  VSB - VISIBILITY
$$




USA.gov is the U.S. government's official web portal to all federal, state and local government web resources and services.